QPF
0.01 0.02 0.03 0.03 0.04 0.03 0.03 0.01 0.01 0.01 0.01 0.01 0.01 0.01 0.01 0.03 0.03 0.05 0.07 0.06 0.08 0.07 0.09 0.09 0.08 0.07 0.06 0.04 0.03 0.05 0.07 0.05 0.04 0.04 0.06 0.07 0.08 0.10 0.13 0.09 0.06 0.05 0.07 0.09 0.08 0.08 0.07 0.06 0.06
0.01 0.02 0.03 0.03 0.03 0.03 0.03 0.02 0.01 0.01 0.01 0.00 0.00 0.00 0.01 0.01 0.02 0.06 0.07 0.07 0.07 0.05 0.07 0.06 0.06 0.05 0.04 0.04 0.03 0.04 0.06 0.06 0.05 0.06 0.06 0.05 0.06 0.08 0.10 0.10 0.07 0.07 0.08 0.06 0.06 0.05 0.07 0.08 0.08
0.01 0.02 0.02 0.02 0.02 0.03 0.03 0.02 0.02 0.01 0.01 0.01 0.00 0.01 0.02 0.03 0.03 0.06 0.08 0.07 0.07 0.06 0.05 0.06 0.06 0.04 0.03 0.03 0.03 0.05 0.05 0.07 0.07 0.07 0.06 0.05 0.06 0.08 0.09 0.09 0.07 0.06 0.05 0.05 0.06 0.06 0.06 0.06 0.06
0.01 0.02 0.02 0.03 0.03 0.07 0.05 0.04 0.02 0.01 0.01 0.01 0.00 0.01 0.01 0.02 0.03 0.06 0.08 0.09 0.10 0.08 0.06 0.07 0.06 0.04 0.04 0.04 0.04 0.05 0.05 0.06 0.07 0.07 0.09 0.06 0.05 0.07 0.09 0.10 0.08 0.06 0.05 0.04 0.06 0.07 0.06 0.05 0.04
0.01 0.01 0.02 0.03 0.04 0.07 0.07 0.04 0.02 0.01 0.01 0.00 0.00 0.00 0.01 0.02 0.02 0.06 0.09 0.08 0.07 0.06 0.07 0.07 0.06 0.05 0.04 0.04 0.04 0.05 0.06 0.06 0.06 0.08 0.09 0.08 0.07 0.05 0.06 0.09 0.10 0.08 0.06 0.05 0.06 0.06 0.06 0.06 0.04
0.01 0.01 0.01 0.01 0.02 0.03 0.04 0.03 0.02 0.01 0.00 0.00 0.01 0.01 0.02 0.03 0.04 0.08 0.11 0.09 0.06 0.04 0.06 0.05 0.04 0.04 0.03 0.03 0.04 0.04 0.05 0.06 0.05 0.06 0.08 0.09 0.07 0.06 0.06 0.07 0.09 0.07 0.07 0.06 0.07 0.08 0.07 0.07 0.04
0.01 0.00 0.00 0.00 0.01 0.02 0.03 0.03 0.02 0.01 0.00 0.00 0.01 0.01 0.02 0.03 0.04 0.06 0.08 0.11 0.09 0.07 0.07 0.04 0.03 0.04 0.04 0.04 0.03 0.04 0.04 0.05 0.05 0.08 0.10 0.08 0.08 0.07 0.06 0.06 0.06 0.06 0.08 0.09 0.09 0.08 0.09 0.07 0.05
0.01 0.01 0.00 0.00 0.01 0.02 0.04 0.03 0.02 0.01 0.01 0.00 0.00 0.00 0.01 0.02 0.02 0.03 0.06 0.09 0.08 0.06 0.04 0.04 0.05 0.04 0.03 0.02 0.03 0.04 0.05 0.07 0.10 0.12 0.14 0.14 0.12 0.10 0.07 0.08 0.08 0.08 0.10 0.11 0.10 0.09 0.10 0.08 0.07
0.01 0.01 0.00 0.00 0.01 0.01 0.02 0.02 0.01 0.01 0.00 0.00 0.00 0.00 0.01 0.03 0.03 0.03 0.04 0.04 0.03 0.03 0.03 0.03 0.05 0.04 0.02 0.01 0.02 0.04 0.05 0.10 0.16 0.19 0.23 0.21 0.17 0.12 0.10 0.12 0.15 0.17 0.15 0.13 0.12 0.12 0.11 0.10 0.07
0.01 0.00 0.01 0.01 0.01 0.01 0.01 0.01 0.01 0.01 0.00 0.01 0.00 0.00 0.02 0.04 0.04 0.04 0.02 0.01 0.01 0.02 0.01 0.02 0.02 0.02 0.02 0.01 0.02 0.04 0.05 0.08 0.09 0.13 0.27 0.21 0.19 0.17 0.17 0.19 0.25 0.26 0.21 0.16 0.15 0.13 0.10 0.09 0.06
0.00 0.01 0.00 0.00 0.01 0.02 0.01 0.01 0.00 0.00 0.00 0.00 0.00 0.00 0.01 0.03 0.04 0.03 0.01 0.01 0.01 0.01 0.01 0.01 0.00 0.01 0.01 0.01 0.01 0.03 0.04 0.04 0.03 0.05 0.13 0.12 0.14 0.16 0.18 0.21 0.25 0.22 0.18 0.15 0.13 0.11 0.08 0.06 0.05
0.00 0.01 0.01 0.01 0.01 0.01 0.01 0.00 0.00 0.00 0.00 0.00 0.00 0.00 0.01 0.02 0.02 0.01 0.01 0.00 0.01 0.01 0.01 0.01 0.01 0.01 0.01 0.01 0.01 0.01 0.01 0.02 0.03 0.03 0.04 0.06 0.09 0.11 0.13 0.12 0.15 0.15 0.13 0.10 0.07 0.09 0.09 0.07 0.04
0.01 0.01 0.01 0.01 0.03 0.03 0.01 0.00 0.00 0.00 0.00 0.00 0.01 0.01 0.02 0.02 0.01 0.00 0.01 0.01 0.01 0.02 0.02 0.02 0.02 0.02 0.02 0.02 0.02 0.01 0.01 0.02 0.01 0.01 0.03 0.03 0.04 0.06 0.08 0.08 0.09 0.10 0.07 0.06 0.06 0.08 0.09 0.07 0.05
0.00 0.00 0.00 0.02 0.04 0.05 0.02 0.01 0.01 0.00 0.01 0.01 0.02 0.03 0.03 0.02 0.01 0.01 0.01 0.01 0.02 0.03 0.03 0.02 0.02 0.02 0.02 0.02 0.02 0.02 0.02 0.02 0.02 0.01 0.01 0.02 0.03 0.03 0.03 0.03 0.04 0.05 0.04 0.04 0.06 0.07 0.08 0.09 0.08
0.00 0.00 0.01 0.02 0.04 0.04 0.06 0.03 0.01 0.01 0.01 0.02 0.03 0.03 0.03 0.03 0.02 0.01 0.01 0.01 0.02 0.03 0.03 0.01 0.01 0.01 0.01 0.02 0.02 0.03 0.02 0.03 0.02 0.01 0.02 0.04 0.04 0.03 0.03 0.04 0.03 0.03 0.03 0.04 0.05 0.06 0.06 0.08 0.08
0.01 0.01 0.01 0.02 0.03 0.03 0.06 0.05 0.02 0.02 0.01 0.02 0.03 0.02 0.03 0.02 0.02 0.01 0.02 0.02 0.03 0.03 0.03 0.02 0.01 0.01 0.02 0.02 0.02 0.02 0.02 0.02 0.02 0.02 0.02 0.04 0.05 0.03 0.05 0.07 0.04 0.04 0.05 0.05 0.06 0.07 0.05 0.06 0.08
0.00 0.00 0.01 0.01 0.02 0.02 0.03 0.04 0.02 0.02 0.01 0.02 0.02 0.02 0.03 0.02 0.02 0.02 0.02 0.02 0.03 0.04 0.04 0.02 0.02 0.02 0.01 0.02 0.03 0.03 0.02 0.01 0.01 0.02 0.02 0.02 0.04 0.05 0.05 0.05 0.06 0.06 0.07 0.07 0.08 0.09 0.07 0.07 0.07
0.00 0.00 0.01 0.01 0.02 0.01 0.01 0.01 0.02 0.02 0.02 0.02 0.02 0.02 0.02 0.01 0.02 0.02 0.03 0.02 0.03 0.04 0.05 0.02 0.02 0.02 0.01 0.02 0.05 0.04 0.01 0.00 0.01 0.02 0.02 0.02 0.03 0.06 0.08 0.07 0.08 0.07 0.07 0.07 0.08 0.09 0.08 0.07 0.06
0.01 0.01 0.00 0.01 0.01 0.01 0.01 0.01 0.01 0.01 0.01 0.01 0.02 0.02 0.01 0.01 0.02 0.02 0.02 0.01 0.03 0.05 0.04 0.02 0.02 0.01 0.01 0.01 0.04 0.06 0.02 0.01 0.01 0.02 0.02 0.02 0.04 0.06 0.07 0.08 0.11 0.09 0.07 0.06 0.07 0.09 0.09 0.09 0.07
0.01 0.01 0.00 0.00 0.00 0.01 0.00 0.01 0.01 0.01 0.02 0.01 0.01 0.01 0.01 0.02 0.02 0.02 0.01 0.01 0.02 0.04 0.05 0.04 0.02 0.01 0.01 0.03 0.03 0.05 0.05 0.03 0.02 0.03 0.04 0.03 0.02 0.03 0.04 0.05 0.06 0.07 0.08 0.07 0.07 0.08 0.09 0.10 0.09
0.01 0.01 0.00 0.00 0.00 0.00 0.00 0.01 0.01 0.01 0.01 0.01 0.01 0.02 0.02 0.02 0.01 0.02 0.01 0.00 0.01 0.02 0.04 0.06 0.05 0.03 0.02 0.04 0.03 0.03 0.04 0.04 0.04 0.04 0.04 0.04 0.04 0.03 0.04 0.05 0.04 0.04 0.04 0.06 0.08 0.10 0.10 0.10 0.10
0.00 0.00 0.00 0.01 0.01 0.00 0.01 0.01 0.01 0.01 0.00 0.01 0.01 0.02 0.02 0.01 0.01 0.02 0.01 0.01 0.01 0.01 0.02 0.04 0.04 0.04 0.04 0.04 0.04 0.02 0.02 0.02 0.03 0.03 0.04 0.05 0.05 0.04 0.05 0.06 0.06 0.05 0.05 0.05 0.06 0.10 0.12 0.11 0.11
0.00 0.00 0.00 0.00 0.00 0.00 0.01 0.01 0.01 0.01 0.00 0.00 0.00 0.01 0.01 0.01 0.01 0.01 0.02 0.03 0.03 0.03 0.03 0.04 0.05 0.03 0.04 0.04 0.03 0.03 0.02 0.02 0.03 0.04 0.04 0.05 0.06 0.08 0.09 0.08 0.06 0.05 0.05 0.05 0.06 0.07 0.10 0.12 0.13
0.00 0.01 0.01 0.01 0.01 0.00 0.01 0.01 0.01 0.01 0.00 0.00 0.00 0.00 0.00 0.01 0.01 0.01 0.02 0.04 0.04 0.05 0.06 0.07 0.04 0.02 0.02 0.02 0.02 0.02 0.03 0.03 0.04 0.04 0.04 0.05 0.07 0.12 0.21 0.21 0.15 0.11 0.10 0.08 0.08 0.08 0.08 0.08 0.11
0.00 0.01 0.01 0.01 0.01 0.01 0.01 0.01 0.01 0.00 0.00 0.00 0.00 0.00 0.00 0.01 0.01 0.01 0.02 0.03 0.05 0.05 0.06 0.05 0.02 0.02 0.02 0.02 0.02 0.02 0.02 0.02 0.03 0.03 0.04 0.05 0.04 0.06 0.12 0.19 0.19 0.15 0.14 0.12 0.10 0.09 0.09 0.10 0.10
0.01 0.01 0.01 0.01 0.01 0.00 0.00 0.00 0.00 0.00 0.00 0.00 0.01 0.01 0.01 0.01 0.01 0.01 0.01 0.02 0.04 0.05 0.06 0.06 0.05 0.04 0.03 0.02 0.02 0.02 0.03 0.03 0.03 0.04 0.03 0.03 0.03 0.03 0.04 0.07 0.10 0.10 0.08 0.07 0.07 0.07 0.09 0.09 0.09
0.01 0.01 0.01 0.01 0.00 0.00 0.00 0.00 0.00 0.00 0.00 0.01 0.02 0.01 0.01 0.00 0.01 0.01 0.01 0.01 0.02 0.03 0.05 0.06 0.06 0.06 0.04 0.03 0.03 0.03 0.03 0.03 0.03 0.04 0.03 0.02 0.03 0.03 0.02 0.02 0.04 0.04 0.03 0.03 0.04 0.03 0.04 0.05 0.05
0.01 0.01 0.00 0.01 0.00 0.00 0.00 0.00 0.01 0.01 0.01 0.01 0.01 0.01 0.01 0.00 0.01 0.01 0.01 0.01 0.01 0.01 0.01 0.01 0.02 0.03 0.04 0.04 0.03 0.04 0.05 0.04 0.03 0.03 0.03 0.02 0.02 0.02 0.02 0.01 0.02 0.02 0.02 0.02 0.03 0.02 0.03 0.04 0.03
0.01 0.01 0.00 0.00 0.00 0.01 0.00 0.00 0.01 0.01 0.01 0.01 0.01 0.01 0.01 0.01 0.01 0.01 0.01 0.00 0.00 0.00 0.00 0.00 0.01 0.03 0.04 0.06 0.05 0.03 0.04 0.04 0.03 0.02 0.02 0.02 0.01 0.02 0.02 0.02 0.02 0.01 0.01 0.01 0.02 0.02 0.05 0.05 0.04
0.00 0.00 0.00 0.00 0.01 0.01 0.01 0.01 0.01 0.01 0.01 0.01 0.01 0.00 0.00 0.01 0.00 0.00 0.00 0.00 0.00 0.00 0.00 0.01 0.01 0.02 0.03 0.05 0.05 0.04 0.03 0.03 0.02 0.02 0.02 0.01 0.01 0.02 0.02 0.02 0.02 0.02 0.01 0.01 0.01 0.01 0.04 0.07 0.05
MSLP
1007.81 1008.66 1009.51 1010.23 1010.71 1010.87 1010.71 1010.30 1009.72 1009.12 1008.61 1008.28 1008.15 1008.20 1008.34 1008.46 1008.46 1008.23 1007.78 1007.10 1006.27 1005.37 1004.48 1003.64 1002.88 1002.14 1001.38 1000.51 999.50 998.35 997.09 995.83 994.69 993.80 993.27 993.16 993.47 994.17 995.17 996.37 997.66 998.98 1000.27 1001.50 1002.68 1003.82 1004.93 1006.01 1007.04
1008.05 1008.99 1009.86 1010.53 1010.90 1010.92 1010.61 1010.04 1009.33 1008.63 1008.05 1007.67 1007.52 1007.55 1007.68 1007.80 1007.81 1007.64 1007.25 1006.68 1005.97 1005.20 1004.43 1003.71 1003.03 1002.35 1001.61 1000.77 999.79 998.67 997.47 996.27 995.20 994.39 993.91 993.82 994.13 994.79 995.72 996.84 998.06 999.30 1000.52 1001.70 1002.85 1003.96 1005.04 1006.10 1007.13
1008.46 1009.42 1010.26 1010.83 1011.07 1010.94 1010.48 1009.78 1008.98 1008.22 1007.60 1007.19 1007.01 1007.00 1007.11 1007.21 1007.22 1007.07 1006.74 1006.26 1005.67 1005.04 1004.40 1003.80 1003.22 1002.62 1001.95 1001.16 1000.24 999.18 998.06 996.95 995.97 995.22 994.78 994.70 994.98 995.59 996.44 997.47 998.60 999.76 1000.92 1002.06 1003.16 1004.24 1005.30 1006.33 1007.33
1009.01 1009.95 1010.68 1011.12 1011.20 1010.92 1010.34 1009.56 1008.72 1007.93 1007.31 1006.90 1006.70 1006.67 1006.73 1006.79 1006.78 1006.63 1006.35 1005.94 1005.46 1004.95 1004.45 1003.97 1003.49 1002.98 1002.38 1001.66 1000.80 999.83 998.78 997.76 996.86 996.17 995.77 995.68 995.92 996.46 997.23 998.17 999.22 1000.32 1001.43 1002.53 1003.61 1004.67 1005.70 1006.70 1007.66
1009.62 1010.47 1011.06 1011.33 1011.25 1010.84 1010.18 1009.37 1008.54 1007.79 1007.21 1006.83 1006.64 1006.59 1006.61 1006.62 1006.57 1006.41 1006.15 1005.81 1005.42 1005.02 1004.63 1004.25 1003.86 1003.42 1002.89 1002.23 1001.43 1000.53 999.57 998.63 997.79 997.15 996.76 996.66 996.84 997.30 997.99 998.86 999.84 1000.90 1001.98 1003.07 1004.15 1005.20 1006.22 1007.18 1008.10
1010.18 1010.87 1011.29 1011.38 1011.15 1010.64 1009.95 1009.17 1008.41 1007.76 1007.27 1006.96 1006.80 1006.74 1006.73 1006.69 1006.60 1006.43 1006.18 1005.88 1005.57 1005.25 1004.95 1004.64 1004.32 1003.93 1003.44 1002.83 1002.09 1001.25 1000.36 999.49 998.71 998.10 997.71 997.57 997.70 998.09 998.70 999.50 1000.43 1001.46 1002.54 1003.63 1004.73 1005.78 1006.79 1007.74 1008.62
1010.54 1011.05 1011.27 1011.18 1010.83 1010.27 1009.60 1008.91 1008.28 1007.77 1007.42 1007.20 1007.10 1007.05 1007.02 1006.95 1006.83 1006.64 1006.40 1006.14 1005.88 1005.63 1005.38 1005.14 1004.85 1004.49 1004.03 1003.45 1002.75 1001.97 1001.14 1000.32 999.59 999.01 998.61 998.44 998.51 998.82 999.35 1000.08 1000.97 1001.98 1003.06 1004.18 1005.29 1006.36 1007.37 1008.30 1009.15
1010.60 1010.92 1010.95 1010.71 1010.28 1009.71 1009.11 1008.56 1008.09 1007.77 1007.57 1007.47 1007.43 1007.41 1007.37 1007.29 1007.14 1006.95 1006.73 1006.51 1006.29 1006.09 1005.89 1005.67 1005.41 1005.07 1004.62 1004.07 1003.42 1002.69 1001.92 1001.17 1000.49 999.93 999.54 999.34 999.35 999.58 1000.03 1000.69 1001.53 1002.50 1003.57 1004.70 1005.83 1006.91 1007.92 1008.84 1009.65
1010.36 1010.49 1010.36 1010.02 1009.54 1009.02 1008.53 1008.13 1007.86 1007.71 1007.67 1007.69 1007.72 1007.73 1007.70 1007.60 1007.46 1007.27 1007.08 1006.90 1006.72 1006.57 1006.40 1006.22 1005.97 1005.64 1005.22 1004.70 1004.10 1003.43 1002.75 1002.08 1001.46 1000.95 1000.56 1000.34 1000.30 1000.46 1000.83 1001.41 1002.17 1003.10 1004.14 1005.24 1006.36 1007.45 1008.45 1009.35 1010.13
1009.87 1009.86 1009.60 1009.20 1008.73 1008.28 1007.92 1007.69 1007.60 1007.62 1007.71 1007.83 1007.92 1007.95 1007.92 1007.83 1007.69 1007.53 1007.38 1007.24 1007.12 1007.00 1006.88 1006.71 1006.49 1006.18 1005.79 1005.33 1004.80 1004.23 1003.64 1003.07 1002.55 1002.10 1001.74 1001.51 1001.44 1001.53 1001.82 1002.31 1002.99 1003.83 1004.81 1005.87 1006.95 1008.01 1008.99 1009.86 1010.61
1009.27 1009.15 1008.84 1008.42 1007.99 1007.64 1007.41 1007.34 1007.39 1007.54 1007.73 1007.91 1008.03 1008.07 1008.04 1007.95 1007.83 1007.71 1007.59 1007.50 1007.43 1007.36 1007.27 1007.14 1006.94 1006.68 1006.34 1005.95 1005.52 1005.06 1004.60 1004.16 1003.75 1003.38 1003.09 1002.88 1002.78 1002.83 1003.05 1003.44 1004.03 1004.77 1005.66 1006.64 1007.65 1008.65 1009.58 1010.40 1011.10
1008.74 1008.56 1008.23 1007.84 1007.48 1007.23 1007.13 1007.17 1007.33 1007.56 1007.79 1007.98 1008.09 1008.12 1008.08 1008.00 1007.89 1007.80 1007.73 1007.69 1007.67 1007.64 1007.58 1007.48 1007.33 1007.11 1006.85 1006.55 1006.23 1005.91 1005.59 1005.29 1005.01 1004.75 1004.53 1004.37 1004.29 1004.31 1004.47 1004.79 1005.27 1005.91 1006.69 1007.56 1008.48 1009.39 1010.25 1011.01 1011.66
1008.41 1008.23 1007.92 1007.59 1007.31 1007.16 1007.15 1007.27 1007.48 1007.73 1007.95 1008.10 1008.18 1008.17 1008.11 1008.02 1007.93 1007.86 1007.83 1007.83 1007.84 1007.85 1007.82 1007.75 1007.63 1007.48 1007.29 1007.09 1006.90 1006.71 1006.54 1006.38 1006.23 1006.09 1005.97 1005.87 1005.83 1005.85 1005.98 1006.24 1006.64 1007.18 1007.85 1008.60 1009.41 1010.22 1010.99 1011.67 1012.25
1008.39 1008.24 1007.98 1007.72 1007.53 1007.46 1007.51 1007.67 1007.87 1008.08 1008.24 1008.33 1008.34 1008.28 1008.18 1008.08 1008.00 1007.96 1007.95 1007.98 1008.01 1008.02 1008.01 1007.96 1007.87 1007.77 1007.66 1007.55 1007.47 1007.40 1007.36 1007.33 1007.30 1007.28 1007.25 1007.23 1007.24 1007.30 1007.43 1007.66 1008.01 1008.47 1009.03 1009.67 1010.37 1011.07 1011.75 1012.35 1012.86
1008.66 1008.55 1008.37 1008.18 1008.07 1008.06 1008.15 1008.29 1008.46 1008.59 1008.66 1008.65 1008.57 1008.46 1008.33 1008.22 1008.14 1008.12 1008.13 1008.15 1008.18 1008.19 1008.17 1008.13 1008.06 1008.00 1007.95 1007.92 1007.92 1007.96 1008.01 1008.08 1008.14 1008.20 1008.25 1008.31 1008.38 1008.49 1008.65 1008.89 1009.21 1009.62 1010.10 1010.66 1011.25 1011.86 1012.44 1012.96 1013.41
1009.15 1009.08 1008.95 1008.85 1008.81 1008.84 1008.93 1009.05 1009.14 1009.17 1009.13 1009.01 1008.86 1008.68 1008.53 1008.41 1008.35 1008.34 1008.35 1008.38 1008.39 1008.38 1008.34 1008.28 1008.22 1008.18 1008.17 1008.20 1008.26 1008.36 1008.48 1008.60 1008.71 1008.82 1008.92 1009.03 1009.16 1009.32 1009.53 1009.80 1010.12 1010.51 1010.95 1011.43 1011.94 1012.46 1012.96 1013.42 1013.81
1009.69 1009.66 1009.61 1009.58 1009.60 1009.66 1009.75 1009.81 1009.81 1009.73 1009.57 1009.35 1009.11 1008.90 1008.72 1008.62 1008.58 1008.58 1008.61 1008.62 1008.61 1008.57 1008.50 1008.42 1008.35 1008.32 1008.34 1008.41 1008.51 1008.64 1008.78 1008.91 1009.03 1009.15 1009.27 1009.40 1009.57 1009.78 1010.03 1010.34 1010.69 1011.08 1011.50 1011.93 1012.38 1012.83 1013.27 1013.67 1014.02
1010.16 1010.17 1010.18 1010.23 1010.32 1010.42 1010.49 1010.49 1010.39 1010.19 1009.91 1009.59 1009.28 1009.03 1008.85 1008.77 1008.76 1008.80 1008.83 1008.85 1008.81 1008.74 1008.64 1008.53 1008.46 1008.44 1008.48 1008.58 1008.71 1008.85 1008.98 1009.10 1009.19 1009.27 1009.37 1009.50 1009.67 1009.91 1010.21 1010.55 1010.93 1011.33 1011.74 1012.14 1012.54 1012.93 1013.32 1013.68 1014.00
1010.44 1010.50 1010.60 1010.74 1010.91 1011.05 1011.10 1011.04 1010.83 1010.50 1010.09 1009.67 1009.29 1009.01 1008.85 1008.80 1008.84 1008.91 1008.98 1009.00 1008.96 1008.86 1008.74 1008.62 1008.55 1008.54 1008.61 1008.73 1008.88 1009.03 1009.15 1009.23 1009.27 1009.30 1009.34 1009.43 1009.59 1009.83 1010.15 1010.52 1010.92 1011.33 1011.73 1012.11 1012.47 1012.81 1013.15 1013.47 1013.78
1010.52 1010.66 1010.87 1011.13 1011.39 1011.57 1011.61 1011.47 1011.15 1010.68 1010.13 1009.59 1009.14 1008.83 1008.67 1008.67 1008.76 1008.89 1009.00 1009.04 1009.00 1008.90 1008.77 1008.65 1008.59 1008.61 1008.71 1008.86 1009.04 1009.21 1009.32 1009.37 1009.36 1009.32 1009.30 1009.33 1009.45 1009.67 1009.97 1010.35 1010.76 1011.18 1011.56 1011.92 1012.23 1012.53 1012.82 1013.11 1013.40
1010.44 1010.70 1011.06 1011.47 1011.84 1012.07 1012.10 1011.88 1011.42 1010.79 1010.08 1009.40 1008.85 1008.49 1008.34 1008.37 1008.52 1008.71 1008.87 1008.95 1008.94 1008.85 1008.72 1008.61 1008.57 1008.62 1008.76 1008.97 1009.19 1009.39 1009.51 1009.54 1009.49 1009.40 1009.31 1009.28 1009.34 1009.52 1009.80 1010.16 1010.56 1010.96 1011.33 1011.65 1011.92 1012.17 1012.40 1012.65 1012.92
1010.29 1010.72 1011.28 1011.86 1012.35 1012.64 1012.64 1012.32 1011.71 1010.89 1009.99 1009.15 1008.48 1008.06 1007.89 1007.95 1008.15 1008.41 1008.63 1008.76 1008.78 1008.71 1008.59 1008.50 1008.48 1008.56 1008.75 1009.01 1009.29 1009.53 1009.68 1009.72 1009.66 1009.53 1009.40 1009.31 1009.31 1009.44 1009.68 1010.01 1010.39 1010.76 1011.10 1011.38 1011.60 1011.78 1011.96 1012.15 1012.39
1010.21 1010.85 1011.62 1012.38 1013.00 1013.34 1013.30 1012.86 1012.07 1011.04 1009.94 1008.91 1008.11 1007.59 1007.40 1007.47 1007.72 1008.04 1008.33 1008.51 1008.57 1008.52 1008.42 1008.33 1008.33 1008.44 1008.67 1008.98 1009.31 1009.61 1009.80 1009.87 1009.82 1009.68 1009.52 1009.39 1009.34 1009.42 1009.61 1009.90 1010.24 1010.58 1010.88 1011.11 1011.28 1011.40 1011.51 1011.64 1011.81
1010.26 1011.13 1012.11 1013.05 1013.78 1014.14 1014.04 1013.47 1012.50 1011.25 1009.93 1008.72 1007.77 1007.16 1006.93 1007.01 1007.30 1007.69 1008.04 1008.28 1008.38 1008.35 1008.25 1008.17 1008.16 1008.28 1008.52 1008.86 1009.24 1009.58 1009.83 1009.94 1009.92 1009.79 1009.62 1009.46 1009.38 1009.41 1009.55 1009.80 1010.09 1010.39 1010.65 1010.83 1010.95 1011.01 1011.04 1011.09 1011.19
1010.47 1011.55 1012.72 1013.80 1014.60 1014.96 1014.78 1014.07 1012.91 1011.46 1009.94 1008.55 1007.47 1006.79 1006.52 1006.62 1006.96 1007.40 1007.82 1008.11 1008.25 1008.24 1008.14 1008.04 1008.02 1008.11 1008.35 1008.70 1009.09 1009.47 1009.76 1009.91 1009.93 1009.82 1009.66 1009.49 1009.38 1009.37 1009.46 1009.66 1009.90 1010.16 1010.37 1010.51 1010.57 1010.57 1010.53 1010.50 1010.51
1010.79 1012.03 1013.33 1014.50 1015.32 1015.63 1015.36 1014.51 1013.18 1011.56 1009.89 1008.38 1007.21 1006.47 1006.20 1006.32 1006.72 1007.23 1007.71 1008.06 1008.23 1008.24 1008.14 1008.02 1007.96 1008.02 1008.22 1008.54 1008.93 1009.31 1009.62 1009.81 1009.85 1009.78 1009.62 1009.45 1009.31 1009.26 1009.31 1009.45 1009.64 1009.84 1010.00 1010.10 1010.11 1010.05 1009.95 1009.85 1009.78
1011.13 1012.45 1013.80 1014.97 1015.75 1015.99 1015.61 1014.63 1013.18 1011.45 1009.69 1008.12 1006.92 1006.19 1005.95 1006.12 1006.58 1007.17 1007.72 1008.13 1008.35 1008.38 1008.28 1008.13 1008.03 1008.04 1008.18 1008.46 1008.81 1009.18 1009.49 1009.68 1009.75 1009.68 1009.54 1009.35 1009.19 1009.10 1009.09 1009.17 1009.30 1009.44 1009.55 1009.60 1009.57 1009.47 1009.31 1009.14 1008.99
1011.37 1012.68 1013.99 1015.08 1015.76 1015.88 1015.39 1014.32 1012.81 1011.04 1009.28 1007.73 1006.58 1005.91 1005.74 1006.00 1006.54 1007.20 1007.83 1008.30 1008.57 1008.64 1008.55 1008.39 1008.25 1008.21 1008.30 1008.51 1008.81 1009.14 1009.42 1009.61 1009.67 1009.61 1009.45 1009.26 1009.06 1008.92 1008.85 1008.86 1008.92 1008.99 1009.04 1009.04 1008.97 1008.83 1008.64 1008.42 1008.21
1011.43 1012.63 1013.79 1014.72 1015.24 1015.23 1014.64 1013.53 1012.02 1010.31 1008.63 1007.20 1006.17 1005.62 1005.57 1005.92 1006.55 1007.29 1007.99 1008.53 1008.86 1008.97 1008.91 1008.76 1008.61 1008.53 1008.57 1008.72 1008.96 1009.23 1009.47 1009.63 1009.67 1009.59 1009.42 1009.20 1008.97 1008.77 1008.63 1008.56 1008.54 1008.54 1008.53 1008.48 1008.37 1008.20 1007.98 1007.74 1007.50
1011.27 1012.27 1013.21 1013.91 1014.24 1014.08 1013.42 1012.31 1010.87 1009.30 1007.80 1006.55 1005.71 1005.33 1005.41 1005.87 1006.58 1007.39 1008.15 1008.75 1009.14 1009.30 1009.29 1009.18 1009.04 1008.96 1008.96 1009.07 1009.25 1009.46 1009.64 1009.76 1009.76 1009.66 1009.47 1009.21 1008.93 1008.68 1008.47 1008.31 1008.21 1008.13 1008.06 1007.96 1007.82 1007.63 1007.40 1007.15 1006.91
Thickness
5817 5815 5811 5800 5781 5762 5756 5767 5777 5779 5781 5789 5792 5787 5778 5772 5767 5763 5784 5793 5794 5792 5792 5790 5789 5787 5786 5785 5783 5783 5782 5781 5781 5780 5779 5779 5779 5777 5776 5774 5772 5771 5769 5768 5767 5766 5765 5764 5763
5820 5817 5807 5792 5766 5746 5754 5772 5776 5781 5788 5794 5793 5788 5780 5776 5782 5782 5786 5792 5793 5792 5790 5789 5787 5786 5784 5783 5782 5781 5780 5780 5779 5778 5777 5777 5776 5775 5774 5772 5771 5769 5768 5767 5766 5765 5764 5763 5762
5822 5818 5798 5781 5762 5751 5759 5776 5780 5788 5795 5794 5788 5787 5781 5777 5783 5785 5789 5793 5792 5790 5789 5788 5786 5784 5783 5782 5780 5779 5779 5778 5777 5776 5775 5775 5774 5773 5772 5771 5769 5768 5767 5766 5765 5764 5763 5762 5761
5820 5808 5795 5774 5763 5770 5775 5782 5787 5788 5792 5794 5788 5780 5783 5788 5788 5789 5792 5792 5790 5788 5788 5786 5785 5783 5781 5780 5779 5778 5777 5776 5775 5775 5774 5773 5772 5771 5770 5769 5767 5766 5766 5765 5764 5764 5763 5762 5761
5818 5799 5778 5764 5768 5779 5786 5791 5791 5786 5786 5788 5786 5776 5776 5787 5792 5792 5791 5790 5787 5786 5786 5785 5783 5782 5780 5778 5777 5776 5775 5774 5773 5773 5772 5771 5770 5769 5769 5768 5766 5765 5765 5764 5763 5763 5762 5761 5760
5805 5792 5765 5757 5769 5783 5790 5794 5792 5787 5786 5788 5784 5775 5775 5787 5789 5789 5789 5788 5787 5785 5784 5782 5781 5780 5778 5777 5775 5774 5773 5772 5772 5772 5771 5770 5769 5768 5768 5767 5766 5765 5764 5763 5763 5762 5761 5761 5760
5798 5783 5768 5767 5770 5778 5789 5796 5791 5786 5785 5787 5788 5774 5775 5783 5787 5789 5787 5786 5784 5783 5781 5780 5779 5777 5776 5775 5774 5772 5771 5771 5771 5771 5770 5769 5768 5767 5766 5766 5765 5764 5764 5762 5762 5761 5761 5760 5759
5807 5786 5772 5769 5771 5777 5793 5796 5796 5792 5788 5797 5793 5775 5773 5783 5788 5787 5785 5782 5781 5780 5779 5777 5776 5775 5774 5773 5772 5771 5770 5769 5769 5769 5769 5768 5767 5766 5765 5764 5764 5763 5762 5762 5761 5760 5760 5760 5759
5813 5780 5767 5774 5777 5784 5796 5793 5797 5802 5795 5794 5794 5788 5788 5789 5788 5783 5779 5777 5777 5777 5776 5776 5775 5773 5772 5772 5770 5769 5768 5767 5767 5767 5767 5766 5766 5765 5764 5764 5763 5762 5762 5761 5761 5760 5760 5759 5759
5802 5775 5781 5793 5795 5794 5797 5795 5796 5793 5787 5785 5786 5789 5790 5787 5783 5779 5776 5773 5773 5773 5774 5774 5773 5772 5771 5771 5770 5768 5767 5766 5766 5765 5765 5764 5764 5764 5763 5763 5763 5762 5762 5761 5760 5760 5759 5759 5758
5803 5789 5797 5803 5806 5803 5797 5796 5800 5789 5781 5784 5783 5784 5785 5783 5780 5777 5775 5774 5773 5773 5773 5773 5772 5771 5770 5769 5768 5767 5765 5764 5764 5764 5763 5763 5763 5762 5762 5762 5762 5761 5761 5760 5760 5759 5758 5758 5758
5804 5804 5807 5806 5810 5804 5799 5798 5795 5792 5790 5798 5794 5790 5785 5781 5778 5777 5775 5774 5773 5772 5772 5772 5771 5770 5769 5768 5767 5766 5764 5763 5763 5762 5762 5762 5761 5761 5761 5761 5760 5760 5760 5759 5758 5757 5757 5757 5757
5805 5805 5809 5810 5808 5805 5802 5797 5794 5792 5798 5799 5795 5789 5784 5780 5778 5777 5776 5774 5773 5771 5771 5771 5771 5770 5769 5767 5766 5766 5764 5763 5763 5763 5762 5761 5761 5760 5760 5759 5759 5759 5758 5758 5757 5757 5756 5756 5756
5808 5807 5806 5806 5805 5804 5797 5794 5793 5790 5797 5794 5789 5784 5782 5780 5778 5776 5774 5772 5771 5771 5771 5771 5771 5770 5769 5767 5766 5765 5765 5764 5763 5762 5762 5761 5761 5760 5759 5757 5757 5757 5757 5757 5756 5756 5755 5755 5755
5812 5801 5799 5802 5803 5801 5797 5784 5786 5792 5795 5788 5785 5782 5780 5779 5778 5776 5775 5773 5772 5772 5771 5771 5771 5770 5768 5767 5766 5765 5764 5763 5762 5762 5762 5761 5760 5759 5758 5757 5756 5757 5757 5756 5756 5755 5755 5754 5754
5802 5788 5778 5793 5799 5799 5788 5769 5785 5792 5789 5783 5782 5781 5778 5777 5777 5777 5776 5774 5773 5772 5771 5771 5771 5769 5767 5766 5765 5764 5763 5762 5762 5762 5761 5761 5760 5758 5757 5756 5756 5756 5756 5755 5755 5754 5754 5753 5753
5781 5769 5771 5783 5796 5794 5784 5772 5785 5790 5786 5780 5779 5778 5776 5775 5775 5776 5776 5774 5773 5772 5770 5769 5769 5768 5767 5766 5765 5763 5762 5762 5761 5760 5760 5759 5759 5758 5756 5755 5755 5755 5754 5753 5754 5753 5752 5751 5751
5772 5771 5773 5775 5790 5788 5778 5775 5784 5788 5785 5779 5778 5776 5775 5774 5774 5775 5775 5775 5773 5772 5770 5769 5767 5766 5766 5764 5763 5762 5761 5760 5760 5759 5758 5758 5757 5756 5755 5754 5754 5754 5753 5752 5751 5750 5751 5750 5749
5788 5779 5774 5782 5794 5785 5776 5775 5781 5785 5783 5778 5776 5775 5774 5774 5776 5775 5775 5774 5772 5770 5769 5768 5766 5765 5763 5761 5759 5757 5757 5757 5757 5757 5757 5756 5755 5754 5753 5753 5752 5751 5750 5749 5749 5748 5747 5747 5747
5789 5779 5777 5783 5792 5783 5773 5774 5781 5784 5781 5781 5778 5775 5775 5773 5773 5774 5774 5773 5771 5769 5767 5766 5764 5763 5762 5760 5759 5757 5756 5755 5755 5755 5754 5754 5753 5752 5752 5750 5750 5749 5747 5746 5746 5745 5743 5743 5744
5788 5781 5780 5779 5783 5782 5773 5766 5773 5781 5783 5782 5781 5779 5777 5775 5772 5773 5772 5771 5770 5767 5766 5765 5763 5762 5761 5760 5758 5756 5754 5753 5752 5751 5751 5751 5751 5750 5749 5748 5748 5746 5745 5743 5743 5742 5740 5739 5739
5781 5797 5792 5783 5768 5756 5765 5745 5765 5772 5775 5778 5779 5778 5778 5777 5776 5774 5772 5770 5769 5768 5766 5763 5761 5760 5759 5758 5756 5754 5750 5747 5747 5747 5747 5747 5748 5747 5746 5745 5744 5743 5742 5741 5740 5739 5738 5736 5734
5793 5800 5791 5780 5764 5753 5756 5746 5755 5768 5767 5774 5779 5780 5781 5780 5778 5775 5774 5772 5770 5769 5766 5764 5760 5757 5757 5756 5754 5752 5749 5747 5745 5745 5744 5743 5744 5744 5743 5742 5741 5740 5739 5738 5737 5736 5735 5734 5732
5801 5789 5777 5763 5752 5738 5749 5743 5748 5760 5769 5775 5780 5782 5782 5781 5779 5776 5775 5773 5769 5767 5764 5762 5759 5756 5754 5753 5751 5749 5746 5744 5741 5740 5739 5739 5739 5740 5740 5739 5738 5737 5736 5735 5734 5733 5732 5731 5729
5791 5765 5741 5737 5726 5731 5747 5743 5750 5774 5781 5782 5781 5782 5783 5782 5778 5775 5772 5770 5767 5764 5762 5760 5756 5753 5752 5750 5749 5747 5745 5743 5739 5737 5736 5735 5734 5735 5735 5735 5734 5733 5733 5732 5731 5730 5728 5727 5726
5781 5769 5739 5727 5722 5729 5742 5740 5761 5783 5788 5788 5786 5784 5782 5780 5777 5775 5772 5768 5765 5762 5760 5757 5754 5751 5750 5748 5746 5744 5742 5740 5738 5735 5734 5732 5731 5732 5732 5732 5731 5730 5729 5728 5727 5726 5724 5723 5721
5776 5763 5763 5737 5730 5724 5733 5747 5767 5783 5782 5782 5781 5779 5778 5777 5776 5774 5771 5767 5764 5760 5757 5755 5752 5750 5748 5746 5744 5741 5738 5737 5735 5733 5731 5730 5729 5729 5729 5728 5727 5725 5724 5723 5722 5720 5719 5718 5717
5785 5766 5747 5733 5720 5717 5730 5739 5748 5767 5772 5775 5775 5774 5774 5774 5773 5771 5768 5766 5763 5759 5756 5754 5751 5748 5745 5743 5741 5738 5735 5734 5732 5730 5728 5727 5726 5725 5724 5723 5722 5720 5719 5718 5716 5715 5714 5713 5712
5771 5760 5744 5729 5728 5717 5716 5736 5772 5772 5774 5773 5774 5774 5773 5771 5770 5768 5765 5763 5760 5757 5754 5751 5748 5745 5742 5739 5736 5734 5731 5729 5728 5726 5725 5723 5722 5721 5719 5718 5716 5715 5713 5712 5711 5710 5709 5708 5707
5777 5764 5747 5736 5728 5721 5717 5737 5783 5779 5778 5776 5774 5774 5772 5770 5767 5765 5762 5760 5757 5754 5751 5748 5745 5742 5740 5737 5733 5730 5728 5725 5723 5722 5720 5719 5717 5716 5714 5713 5711 5709 5708 5707 5705 5704 5703 5702 5701